Orbital Elements at Epoch 2459000.5 (2020-May-31.0) TDB
Reference: JPL 33 (heliocentric ecliptic J2000)
Element | Value | Uncertainty (1-sigma) | Units |
e | .1882836596215129 | 3.6983e-08 | |
a | 2.357124735119329 | 6.534e-09 | au |
q | 1.913316663806672 | 8.785e-08 | au |
i | 7.95326536374052 | 3.7978e-06 | deg |
node | 38.28013200647578 | 2.2553e-05 | deg |
peri | 172.72587203 | 2.422e-05 | deg |
M | 4.403044439374423 | 7.8998e-06 | deg |
tp | 2458984.333245523040 (2020-May-14.83324552) | 2.9013e-05 | TDB |
period | 1321.819866195242 3.62 | 5.4962e-06 1.505e-08 | d yr |
n | .2723517849949045 | 1.1324e-09 | deg/d |
Q | 2.800932806431985 | 7.7642e-09 | au |
|
| | Orbit Determination Parameters
Additional Information
|